DAL1167 KTPA-KATL

Flight info

Callsign DAL1167
Flight time N/A
Altitude 34000
Route BAYPO2 CAMJO LAIRI LARZZ JJEDI4
Aircraft A321/M-SDE3FGHIRWY/LB1

Departure

Time 2026-05-07 20:31
Airport Tampa International Airport (KTPA)

Arrival

Time N/A
Airport Hartsfield Jackson Atlanta International Airport (KATL)
Time Latitude Longitude Altitude Speed Heading
2026-05-07 20:00 27.98079 -82.53881 44 ft 0 kts 92°
2026-05-07 20:20 27.98079 -82.53882 44 ft 2 kts 92°
2026-05-07 20:20 27.98080 -82.53902 44 ft 3 kts 92°
2026-05-07 20:21 27.98081 -82.53922 44 ft 2 kts 92°
2026-05-07 20:21 27.98081 -82.53941 46 ft 2 kts 92°
2026-05-07 20:21 27.98082 -82.53961 47 ft 3 kts 92°
2026-05-07 20:21 27.98082 -82.53967 47 ft 0 kts 92°
2026-05-07 20:25 27.98090 -82.53963 45 ft 2 kts 25°
2026-05-07 20:25 27.98118 -82.53965 47 ft 6 kts 353°
2026-05-07 20:26 27.98177 -82.53966 47 ft 9 kts
2026-05-07 20:26 27.98254 -82.53964 47 ft 12 kts
2026-05-07 20:26 27.98333 -82.53961 47 ft 11 kts
2026-05-07 20:26 27.98404 -82.53958 48 ft 10 kts
2026-05-07 20:27 27.98465 -82.53956 48 ft 8 kts
2026-05-07 20:27 27.98534 -82.53954 48 ft 14 kts
2026-05-07 20:27 27.98583 -82.53977 47 ft 11 kts 299°
2026-05-07 20:27 27.98631 -82.54032 48 ft 12 kts 354°
2026-05-07 20:28 27.98713 -82.54031 48 ft 11 kts
2026-05-07 20:28 27.98791 -82.54028 48 ft 13 kts
2026-05-07 20:28 27.98903 -82.54024 47 ft 17 kts
2026-05-07 20:28 27.99016 -82.54021 47 ft 16 kts
2026-05-07 20:29 27.99126 -82.54017 46 ft 15 kts
2026-05-07 20:29 27.99231 -82.54014 46 ft 15 kts
2026-05-07 20:29 27.99328 -82.54019 46 ft 13 kts 332°
2026-05-07 20:29 27.99350 -82.54096 46 ft 10 kts 268°
2026-05-07 20:30 27.99299 -82.54136 46 ft 12 kts 182°
2026-05-07 20:30 27.99075 -82.54142 48 ft 65 kts 181°
2026-05-07 20:30 27.98413 -82.54164 51 ft 123 kts 182°
2026-05-07 20:30 27.97402 -82.54198 50 ft 166 kts 182°
2026-05-07 20:31 27.96219 -82.54226 489 ft 168 kts 184°
2026-05-07 20:31 27.95084 -82.54363 1148 ft 162 kts 195°
2026-05-07 20:31 27.93977 -82.54627 1767 ft 166 kts 196°
2026-05-07 20:31 27.92797 -82.54932 2028 ft 182 kts 198°
2026-05-07 20:32 27.91515 -82.55276 2247 ft 198 kts 197°
2026-05-07 20:32 27.90108 -82.55648 2369 ft 218 kts 197°
2026-05-07 20:32 27.88684 -82.56370 2469 ft 236 kts 223°
2026-05-07 20:32 27.87752 -82.57947 2832 ft 250 kts 255°
2026-05-07 20:33 27.87604 -82.59905 3512 ft 255 kts 280°
2026-05-07 20:33 27.88254 -82.61764 4274 ft 259 kts 306°
2026-05-07 20:33 27.89610 -82.63102 5026 ft 264 kts 333°
2026-05-07 20:33 27.91402 -82.63578 5749 ft 271 kts 359°
2026-05-07 20:34 27.93269 -82.63379 6460 ft 275 kts
2026-05-07 20:34 27.95178 -82.63135 7114 ft 278 kts
2026-05-07 20:34 27.97122 -82.62886 7716 ft 284 kts
2026-05-07 20:34 27.99100 -82.62639 8315 ft 289 kts
2026-05-07 20:35 28.01115 -82.62390 8923 ft 294 kts
2026-05-07 20:35 28.03162 -82.62140 9544 ft 298 kts
2026-05-07 20:35 28.05244 -82.61885 10139 ft 304 kts
2026-05-07 20:35 28.07425 -82.61621 10285 ft 326 kts
2026-05-07 20:36 28.09754 -82.61343 10403 ft 347 kts
2026-05-07 20:36 28.12210 -82.61049 10668 ft 360 kts
2026-05-07 20:36 28.14723 -82.60742 11193 ft 365 kts
2026-05-07 20:36 28.17260 -82.60428 11767 ft 368 kts
2026-05-07 20:37 28.19819 -82.60110 12353 ft 371 kts
2026-05-07 20:37 28.22399 -82.59789 12929 ft 375 kts
2026-05-07 20:37 28.25000 -82.59469 13517 ft 377 kts
2026-05-07 20:37 28.27620 -82.59147 14080 ft 380 kts
2026-05-07 20:38 28.30261 -82.58824 14610 ft 383 kts
2026-05-07 20:38 28.32915 -82.58497 15159 ft 385 kts
2026-05-07 20:38 28.35582 -82.58172 15714 ft 386 kts
2026-05-07 20:38 28.38254 -82.58119 16252 ft 384 kts 354°
2026-05-07 20:39 28.40934 -82.58183 16810 ft 386 kts 354°
2026-05-07 20:39 28.43626 -82.58252 17350 ft 388 kts 354°
2026-05-07 20:39 28.46333 -82.58324 17894 ft 390 kts 353°
2026-05-07 20:39 28.49055 -82.58395 18412 ft 392 kts 353°
2026-05-07 20:40 28.51789 -82.58465 18860 ft 395 kts 353°
2026-05-07 20:40 28.54546 -82.58535 19285 ft 397 kts 353°
2026-05-07 20:40 28.57320 -82.58606 19701 ft 400 kts 353°
2026-05-07 20:40 28.60112 -82.58680 20103 ft 403 kts 353°
2026-05-07 20:41 28.62926 -82.58756 20505 ft 406 kts 353°
2026-05-07 20:41 28.65719 -82.58830 20897 ft 409 kts 353°
2026-05-07 20:41 28.68549 -82.59065 21284 ft 407 kts 347°
2026-05-07 20:41 28.71375 -82.59455 21683 ft 410 kts 347°
2026-05-07 20:42 28.74215 -82.59850 22064 ft 413 kts 347°
2026-05-07 20:42 28.77073 -82.60248 22450 ft 415 kts 347°
2026-05-07 20:42 28.79950 -82.60647 22838 ft 418 kts 347°
2026-05-07 20:42 28.82839 -82.61049 23207 ft 420 kts 347°
2026-05-07 20:43 28.85748 -82.61457 23582 ft 422 kts 346°
2026-05-07 20:43 28.88674 -82.61868 23895 ft 425 kts 346°
2026-05-07 20:43 28.91612 -82.62281 24212 ft 427 kts 346°
2026-05-07 20:43 28.94565 -82.62694 24535 ft 428 kts 346°
2026-05-07 20:44 28.97533 -82.63109 24854 ft 430 kts 346°
2026-05-07 20:44 29.00508 -82.63523 25169 ft 432 kts 346°
2026-05-07 20:44 29.03347 -82.63920 25467 ft 434 kts 346°